Regional Weather Roundup
Issued by NWS

Home | Current Version | Previous Version | Graphics & Text | Print | Product List | Glossary On
Versions: 1 2 3 4 5 6 7 8 9 10 11 12 13 14 15 16 17 18 19 20 21 22 23 24 25 26 27 28 29 30 31 32 33 34 35 36 37 38 39 40 41 42 43 44 45 46 47 48 49 50
000
ASUS44 KMEG 190900
RWRTN
TENNESSEE HOURLY STATE WEATHER ROUNDUP
NATIONAL WEATHER SERVICE MEMPHIS TN
300 AM CST SUN FEB 19 2017

TNZ002-004-019-021-049-052-054-088>092-191000-
WEST TENNESSEE

CITY           SKY/WX    TMP DP  RH WIND       PRES   REMARKS
MEMPHIS INTL   CLEAR     50  50 100 S3        29.98F
NWS MEMPHIS      N/A     48 N/A N/A MISG        N/A
JACKSON        CLEAR     45  45 100 CALM      29.99S FOG
UNION CITY     CLOUDY   N/A N/A N/A CALM      29.98S VSB 0
PARIS            N/A     43  43 100 CALM      30.00R VSB 1/4
$$

TNZ008-025-027-028-033-062-065-066-191000-
NORTH MIDDLE TENNESSEE

CITY           SKY/WX    TMP DP  RH WIND       PRES   REMARKS
NASHVILLE      MOCLDY    52  47  83 CALM      30.00R
CLARKSVILLE    FOG       44  42  93 CALM      29.99R VSB 1/4
SMYRNA         CLOUDY    48  47  96 CALM      30.01R
CROSSVILLE     CLOUDY    47  45  93 SW5       30.00S
$$

TNZ061-075-076-078-094-096-097-191000-
SOUTH MIDDLE TENNESSEE

CITY           SKY/WX    TMP DP  RH WIND       PRES   REMARKS
TULLAHOMA      CLOUDY    48  48 100 CALM      30.00S
WINCHESTER     CLOUDY    48  48 100 CALM      30.00R
MCMINNVILLE    CLOUDY    48  48 100 CALM      29.99F
COLUMBIA       MOCLDY   N/A N/A N/A CALM      29.98R VSB 1/2
SHELBYVILLE    PTCLDY    50  50 100 CALM      30.00S
$$

TNZ017-018-042-046-047-191000-
NORTHEAST TENNESSEE

CITY           SKY/WX    TMP DP  RH WIND       PRES   REMARKS
TRI CITIES     CLOUDY    47  46  97 SW6       30.00S FOG
$$

TNZ012-013-036-069-073-074-191000-
CENTRAL EAST TENNESSEE

CITY           SKY/WX    TMP DP  RH WIND       PRES   REMARKS
KNOXVILLE      CLOUDY    50  48  93 CALM      29.99F FOG
OAK RIDGE      FOG       50  48  93 CALM      30.01S VSB 1/2
GATLINBURG     CLOUDY    46  46 100 CALM      30.00S
$$

TNZ083-085-099-191000-
SOUTHEAST TENNESSEE

CITY           SKY/WX    TMP DP  RH WIND       PRES   REMARKS
CHATTANOOGA    MOCLDY    50  49  96 CALM      30.00S FOG
$$

SKY/WX REPORTED AS FAIR MEANS FEW OR NO CLOUDS BELOW
12 THOUSAND FEET.




USA.gov is the U.S. government's official web portal to all federal, state and local government web resources and services.